[[{"header":{"parameterUnit":"m.s-1","parameterCategory":1,"la1":30.2991,"la2":30.254,"lo1":-89.0895,"lo2":-89.0444,"dy":0.0017,"dx":0.0017,"nx":28,"ny":28,"refTime":"2024-10-16T03:00:00:Z","depth":0,"parameterNumber":2,"parameterNumberName":"U-component_of_WINDS"},"data":[0,0,0,0,0,0,0,0,0,0,0,0,0,0,0,0,0,0,0,0,0,0,0,0,0,0,0,0,0,0,0,0,0,0,0,0,0,0,0,0,0,0,0,0,0,0,0,0,0,0,0,0,0,0,0,0,0,0,-1.7963,-1.7962,0,-1.7921,-1.792,-1.792,-1.7848,-1.7847,-1.7845,-1.7844,-1.7803,-1.7803,-1.7803,0,0,0,0,0,0,0,0,0,0,0,0,0,-1.7982,-1.7982,-1.7963,-1.7962,-1.7962,-1.7921,-1.792,-1.792,-1.7848,-1.7847,-1.7845,-1.7843,-1.7803,-1.7803,-1.7803,0,0,0,0,0,0,0,0,0,0,0,0,0,-1.7961,-1.7982,-1.7963,-1.7921,-1.7917,-1.7921,-1.792,-1.7919,-1.7849,-1.7846,-1.7844,-1.7843,-1.7803,-1.7803,-1.7803,-1.7845,0,0,-1.7804,-1.7804,0,0,0,0,0,0,0,0,-1.7962,-1.796,-1.7928,-1.7924,-1.7919,-1.7887,-1.7912,-1.7895,-1.7849,-1.7875,-1.7844,-1.7842,-1.7833,-1.783,-1.7827,-1.7843,-1.7841,-1.7804,-1.7804,-1.7804,-1.7804,0,0,0,0,0,0,0,-1.7963,-1.7961,-1.7946,-1.7927,-1.7922,-1.7905,-1.7899,-1.7908,-1.7866,-1.7872,-1.7867,-1.7863,-1.783,-1.7827,-1.7825,-1.7841,-1.7804,-1.7804,-1.7804,-1.7804,-1.789,-1.7892,0,0,0,0,0,0,-1.7971,-1.7963,-1.7947,-1.7945,-1.7936,-1.7906,-1.79,-1.79,-1.7865,-1.7858,-1.7865,-1.786,-1.7828,-1.7825,-1.7824,-1.7871,-1.7804,-1.7804,-1.7805,-1.7888,-1.789,-1.7892,0,0,0,0,0,0,-1.7972,-1.797,-1.7949,-1.7952,-1.7948,-1.7908,-1.7908,-1.79,-1.7897,-1.7859,-1.7852,-1.7869,-1.7826,-1.7823,-1.784,-1.7869,-1.7804,-1.7805,-1.7885,-1.7888,-1.7891,-1.7966,0,0,0,0,0,0,-1.7972,-1.7971,-1.7986,-1.7953,-1.7949,-1.7966,-1.791,-1.7901,-1.7897,-1.789,-1.7862,-1.7855,-1.7824,-1.784,-1.7841,-1.7868,-1.7805,-1.7882,-1.7886,-1.789,-1.7961,-1.7971,-1.798,0,0,0,0,0,-1.7973,-1.8009,-1.7987,-1.7986,-1.7967,-1.7968,-1.7965,-1.7928,-1.79,-1.7915,-1.7891,-1.7856,-1.7865,-1.7843,-1.7842,-1.787,-1.788,-1.7885,-1.789,-1.7956,-1.7969,-1.798,0,0,0,0,0,0,-1.8047,-1.8004,-1.7979,-1.8005,-1.7991,-1.7956,-1.7974,-1.7943,-1.7937,-1.7931,-1.7886,-1.788,-1.7903,-1.7888,-1.7863,-1.7909,-1.7867,-1.7872,-1.7918,-1.793,-1.7939,-1.7943,-1.7805,0,0,0,0,0,-1.8066,-1.807,-1.8033,-1.8059,-1.8053,-1.8015,-1.8014,-1.7987,-1.797,-1.7964,-1.7941,-1.7927,-1.7926,-1.7927,-1.7925,-1.7958,-1.7951,-1.7977,-1.7986,-1.7995,-1.8,-1.8017,-1.8028,-1.7908,-1.7908,-1.7908,0,0,-1.8106,-1.8083,-1.8089,-1.8074,-1.8059,-1.8065,-1.801,-1.8019,-1.8023,-1.7965,-1.798,-1.7963,-1.7944,-1.7969,-1.7979,-1.7957,-1.8031,-1.8001,-1.8008,-1.8008,-1.8023,-1.8034,-1.8044,-1.7911,-1.7911,-1.791,0,0,-1.8182,-1.8165,-1.8185,-1.8172,-1.815,-1.8124,-1.8129,-1.8099,-1.8085,-1.8099,-1.8056,-1.806,-1.806,-1.8048,-1.8042,-1.8114,-1.8081,-1.8114,-1.8165,-1.8182,-1.8192,-1.82,-1.8226,-1.8236,-1.8119,-1.8119,-1.8119,0,-1.8235,-1.8241,-1.82,-1.8211,-1.8206,-1.8153,-1.8174,-1.8163,-1.8142,-1.814,-1.8116,-1.8115,-1.8098,-1.812,-1.8138,-1.8134,-1.8139,-1.8118,-1.8194,-1.8201,-1.8208,-1.8233,-1.8243,-1.8123,-1.8123,-1.8122,-1.8122,0,-1.8307,-1.8313,-1.8332,-1.8312,-1.8309,-1.8325,-1.8287,-1.8289,-1.8262,-1.8239,-1.8253,-1.8231,-1.8224,-1.8227,-1.8201,-1.8245,-1.8233,-1.8202,-1.8159,-1.8225,-1.8247,-1.8256,-1.8129,-1.8128,-1.8127,-1.8126,0,0,-1.843,-1.8386,-1.8394,-1.8385,-1.8357,-1.8361,-1.8374,-1.8366,-1.8369,-1.8356,-1.8367,-1.8368,-1.8339,-1.8332,-1.8304,-1.8319,-1.8378,-1.8286,-1.8285,-1.8305,-1.8426,-1.8451,-1.8462,-1.8356,-1.8357,-1.8358,-1.8428,0,-1.8501,-1.8521,-1.8484,-1.8514,-1.8518,-1.8468,-1.848,-1.8464,-1.8443,-1.8444,-1.842,-1.8422,-1.8384,-1.8379,-1.8392,-1.8368,-1.8402,-1.8362,-1.8366,-1.8367,-1.8373,-1.8473,-1.8499,-1.8566,-1.8436,-1.8438,-1.8439,0,-1.8586,-1.8577,-1.8607,-1.8577,-1.8578,-1.8589,-1.8579,-1.858,-1.8561,-1.8545,-1.8537,-1.8504,-1.8516,-1.8474,-1.849,-1.8464,-1.8463,-1.8452,-1.8453,-1.8453,-1.8408,-1.8477,-1.8586,-1.8597,-1.8452,-1.8451,-1.845,0,-1.8674,-1.8669,-1.8686,-1.8679,-1.8645,-1.8654,-1.864,-1.8619,-1.8617,-1.8608,-1.8606,-1.8598,-1.8595,-1.859,-1.8556,-1.8528,-1.8576,-1.8531,-1.8563,-1.8565,-1.8577,-1.8577,-1.8689,-1.8575,-1.8575,-1.8575,-1.8574,0,-1.8758,-1.8778,-1.8725,-1.8736,-1.8757,-1.8714,-1.8737,-1.8718,-1.87,-1.8707,-1.8662,-1.867,-1.8623,-1.8626,-1.8599,-1.8616,-1.8615,-1.8602,-1.8595,-1.8607,-1.8609,-1.8607,-1.8602,-1.8577,-1.8577,-1.8576,-1.8576,0,-1.886,-1.8825,-1.884,-1.8806,-1.8798,-1.8815,-1.8786,-1.8795,-1.877,-1.8779,-1.8779,-1.874,-1.8741,-1.8706,-1.8699,-1.8681,-1.8711,-1.8694,-1.8717,-1.8712,-1.8747,-1.8744,-1.8862,-1.8876,-1.8753,-1.8754,-1.8755,0,-1.8916,-1.8931,-1.8897,-1.8898,-1.8886,-1.8888,-1.8885,-1.8843,-1.8842,-1.8822,-1.8833,-1.883,-1.8825,-1.8828,-1.88,-1.8795,-1.8779,-1.8821,-1.8778,-1.8789,-1.8781,-1.8781,-1.8782,-1.883,-1.8832,-1.8833,-1.8834,0,-1.902,-1.9002,-1.8999,-1.899,-1.8987,-1.8979,-1.8967,-1.897,-1.8924,-1.8925,-1.8925,-1.8921,-1.8914,-1.8911,-1.8901,-1.8886,-1.8853,-1.8847,-1.8855,-1.8867,-1.888,-1.8874,-1.8743,-1.8845,-1.8844,-1.8843,-1.8843,-1.8842,-1.9102,-1.9112,-1.9091,-1.9089,-1.9075,-1.9065,-1.9072,-1.9048,-1.9046,-1.9037,-1.9012,-1.9016,-1.8996,-1.8978,-1.8967,-1.897,-1.8949,-1.896,-1.8963,-1.8966,-1.8973,-1.8879,-1.8968,-1.8968,-1.8967,-1.8967,-1.8967,0,-1.9205,-1.9188,-1.9186,-1.9171,-1.917,-1.9137,-1.9122,-1.9123,-1.9127,-1.9111,-1.9107,-1.9107,-1.9104,-1.9075,-1.9069,-1.9077,-1.9061,-1.9077,-1.9076,-1.9074,-1.8992,-1.8986,-1.9089,-1.9089,-1.9089,-1.9089,-1.9089,-1.9089,-1.9258,-1.9274,-1.9254,-1.9263,-1.9246,-1.9248,-1.9243,-1.9233,-1.9221,-1.9222,-1.9219,-1.92,-1.9179,-1.9171,-1.9167,-1.9159,-1.9159,-1.918,-1.9167,-1.9091,-1.9079,-1.9068,-1.9063,-1.918,-1.918,-1.9249,-1.9249,-1.925]},{"header":{"parameterUnit":"m.s-1","parameterCategory":1,"la1":30.2991,"la2":30.254,"lo1":-89.0895,"lo2":-89.0444,"dy":0.0017,"dx":0.0017,"nx":28,"ny":28,"refTime":"2024-10-16T03:00:00:Z","depth":0,"parameterNumber":3,"parameterNumberName":"V-component_of_WINDS"},"data":[0,0,0,0,0,0,0,0,0,0,0,0,0,0,0,0,0,0,0,0,0,0,0,0,0,0,0,0,0,0,0,0,0,0,0,0,0,0,0,0,0,0,0,0,0,0,0,0,0,0,0,0,0,0,0,0,0,0,-2.5382,-2.5382,0,-2.5446,-2.5447,-2.5448,-2.5518,-2.5519,-2.552,-2.5521,-2.5584,-2.5584,-2.5585,0,0,0,0,0,0,0,0,0,0,0,0,0,-2.5317,-2.5318,-2.5381,-2.5382,-2.5383,-2.5446,-2.5447,-2.5448,-2.5518,-2.5519,-2.552,-2.5522,-2.5583,-2.5584,-2.5585,0,0,0,0,0,0,0,0,0,0,0,0,0,-2.5359,-2.5318,-2.5381,-2.5426,-2.543,-2.5446,-2.5447,-2.5448,-2.5518,-2.5519,-2.5521,-2.5522,-2.5583,-2.5584,-2.5585,-2.5561,0,0,-2.5588,-2.5589,0,0,0,0,0,0,0,0,-2.5357,-2.5362,-2.5418,-2.5423,-2.5428,-2.5476,-2.5447,-2.5486,-2.5517,-2.5484,-2.5521,-2.5523,-2.5546,-2.555,-2.5559,-2.5564,-2.5566,-2.5588,-2.5589,-2.559,-2.559,0,0,0,0,0,0,0,-2.5354,-2.5359,-2.5407,-2.5419,-2.5425,-2.5442,-2.545,-2.5455,-2.5506,-2.5487,-2.5493,-2.55,-2.5549,-2.5558,-2.5561,-2.5567,-2.5588,-2.5589,-2.559,-2.559,-2.5559,-2.5557,0,0,0,0,0,0,-2.5345,-2.5356,-2.5405,-2.5409,-2.5396,-2.5442,-2.5451,-2.5459,-2.5506,-2.5515,-2.5498,-2.5503,-2.5555,-2.556,-2.5563,-2.554,-2.559,-2.5591,-2.5591,-2.556,-2.5558,-2.5557,0,0,0,0,0,0,-2.5343,-2.5348,-2.5402,-2.5384,-2.5392,-2.5441,-2.545,-2.5459,-2.5468,-2.5514,-2.5523,-2.5498,-2.5557,-2.5562,-2.5562,-2.5543,-2.5591,-2.5592,-2.5562,-2.556,-2.5557,-2.5492,0,0,0,0,0,0,-2.5341,-2.5347,-2.5339,-2.5384,-2.5393,-2.54,-2.5449,-2.5459,-2.547,-2.5477,-2.5516,-2.5524,-2.5558,-2.556,-2.5563,-2.5546,-2.5593,-2.5564,-2.5561,-2.5558,-2.5496,-2.5488,-2.5481,0,0,0,0,0,-2.5338,-2.5316,-2.5338,-2.5343,-2.5384,-2.5399,-2.5404,-2.5445,-2.5468,-2.546,-2.549,-2.5523,-2.5545,-2.5559,-2.5563,-2.5546,-2.5565,-2.5562,-2.5558,-2.55,-2.549,-2.5481,0,0,0,0,0,0,-2.5266,-2.5323,-2.5348,-2.534,-2.5364,-2.5411,-2.5402,-2.5432,-2.5449,-2.5455,-2.5503,-2.5512,-2.5506,-2.5526,-2.5541,-2.5527,-2.556,-2.5557,-2.5514,-2.5505,-2.5497,-2.5493,-2.5594,0,0,0,0,0,-2.5249,-2.5258,-2.5307,-2.5295,-2.5306,-2.5352,-2.536,-2.5389,-2.5416,-2.5426,-2.5456,-2.548,-2.5493,-2.55,-2.5514,-2.55,-2.551,-2.549,-2.5482,-2.5476,-2.5473,-2.547,-2.5462,-2.5546,-2.5546,-2.5546,0,0,-2.5215,-2.5247,-2.5249,-2.5281,-2.5304,-2.5312,-2.536,-2.5365,-2.5371,-2.5427,-2.543,-2.5452,-2.5482,-2.5476,-2.5474,-2.5492,-2.5453,-2.5472,-2.5466,-2.5467,-2.5466,-2.5458,-2.545,-2.5544,-2.5544,-2.5544,0,0,-2.5156,-2.518,-2.5175,-2.5197,-2.5231,-2.5262,-2.5261,-2.5303,-2.5321,-2.5325,-2.5368,-2.5375,-2.5395,-2.5416,-2.5429,-2.5381,-2.5412,-2.5384,-2.5344,-2.534,-2.5334,-2.5328,-2.5313,-2.5306,-2.5381,-2.5381,-2.538,0,-2.5108,-2.5122,-2.5167,-2.5171,-2.5185,-2.5238,-2.5233,-2.5252,-2.5288,-2.5296,-2.5316,-2.5344,-2.5368,-2.5368,-2.5357,-2.5365,-2.5365,-2.538,-2.5331,-2.5326,-2.5321,-2.5307,-2.5301,-2.5377,-2.5377,-2.5378,-2.5378,0,-2.5063,-2.5072,-2.5063,-2.5099,-2.5112,-2.5111,-2.5156,-2.5163,-2.5192,-2.5221,-2.5225,-2.5256,-2.5278,-2.528,-2.5307,-2.5285,-2.5296,-2.5322,-2.5357,-2.5309,-2.5297,-2.5292,-2.5372,-2.5373,-2.5374,-2.5375,0,0,-2.4959,-2.5023,-2.5019,-2.5037,-2.508,-2.5088,-2.5089,-2.5113,-2.5119,-2.5143,-2.5146,-2.5163,-2.519,-2.5204,-2.5234,-2.5231,-2.5193,-2.5259,-2.526,-2.5247,-2.5173,-2.5154,-2.5147,-2.5214,-2.5213,-2.5213,-2.5171,0,-2.4909,-2.4917,-2.4959,-2.4955,-2.4965,-2.5016,-2.5018,-2.5045,-2.5072,-2.5084,-2.5114,-2.5126,-2.5158,-2.5168,-2.5167,-2.5198,-2.5179,-2.5201,-2.5218,-2.5218,-2.5211,-2.514,-2.5119,-2.5078,-2.5166,-2.5166,-2.5165,0,-2.4851,-2.4874,-2.4871,-2.4917,-2.4923,-2.4924,-2.495,-2.4961,-2.4992,-2.5013,-2.503,-2.5065,-2.507,-2.5102,-2.5111,-2.5125,-2.5135,-2.5151,-2.5151,-2.5155,-2.5189,-2.5143,-2.5066,-2.506,-2.5157,-2.5158,-2.5159,0,-2.4778,-2.4808,-2.4811,-2.4825,-2.4877,-2.4877,-2.4899,-2.4932,-2.4944,-2.4967,-2.4976,-2.4998,-2.501,-2.5027,-2.5067,-2.5086,-2.5072,-2.5106,-2.5089,-2.5088,-2.5084,-2.5084,-2.5009,-2.5088,-2.5088,-2.5088,-2.5088,0,-2.4718,-2.4715,-2.478,-2.4781,-2.478,-2.4828,-2.4825,-2.4852,-2.4881,-2.4889,-2.4934,-2.494,-2.4992,-2.5005,-2.5036,-2.504,-2.5044,-2.5061,-2.507,-2.5058,-2.5056,-2.5065,-2.507,-2.5086,-2.5087,-2.5087,-2.5087,0,-2.4637,-2.468,-2.4687,-2.4737,-2.475,-2.4746,-2.4789,-2.4793,-2.4824,-2.4834,-2.4839,-2.4886,-2.4904,-2.4946,-2.4973,-2.4994,-2.499,-2.5004,-2.498,-2.4986,-2.4967,-2.4969,-2.4896,-2.489,-2.4971,-2.497,-2.4969,0,-2.4596,-2.4596,-2.4647,-2.4657,-2.4677,-2.4691,-2.4705,-2.4753,-2.4765,-2.4803,-2.4802,-2.4823,-2.4843,-2.4868,-2.4905,-2.4927,-2.4944,-2.4917,-2.4947,-2.4936,-2.4945,-2.4946,-2.4947,-2.491,-2.4909,-2.4908,-2.4907,0,-2.4521,-2.4543,-2.4562,-2.4589,-2.4605,-2.4628,-2.4653,-2.4658,-2.4712,-2.4724,-2.4743,-2.4758,-2.4788,-2.4809,-2.4837,-2.4859,-2.4892,-2.4897,-2.4895,-2.4884,-2.487,-2.4879,-2.4963,-2.4899,-2.49,-2.49,-2.4901,-2.4901,-2.4461,-2.4464,-2.4501,-2.4521,-2.4546,-2.4569,-2.4576,-2.4609,-2.4626,-2.4655,-2.4682,-2.4699,-2.4733,-2.4774,-2.4794,-2.4808,-2.4825,-2.4821,-2.482,-2.4819,-2.4814,-2.4867,-2.4813,-2.4813,-2.4814,-2.4814,-2.4814,0,-2.439,-2.4417,-2.4435,-2.447,-2.4486,-2.4518,-2.4548,-2.4559,-2.4574,-2.4603,-2.4623,-2.4646,-2.4667,-2.4706,-2.4731,-2.4735,-2.4751,-2.474,-2.4741,-2.4746,-2.4797,-2.4797,-2.4727,-2.4727,-2.4727,-2.4727,-2.4727,-2.4727,-2.4355,-2.4362,-2.4389,-2.4409,-2.4436,-2.4455,-2.447,-2.4492,-2.4515,-2.454,-2.4559,-2.4585,-2.4618,-2.4646,-2.4667,-2.4678,-2.4686,-2.467,-2.4686,-2.4733,-2.4742,-2.4749,-2.475,-2.4671,-2.4671,-2.4634,-2.4634,-2.4633]}]]